Terminal Aerodrome Forecast
Issued by NWS Huntsville, AL

Home | Current Version | Previous Version | Text Only | Print | Product List | Glossary On
Versions: 1 2 3 4 5 6 7 8 9 10 11 12 13 14 15 16 17 18 19 20 21
000
FTUS44 KHUN 241123
TAFHSV
TAF
KHSV 241123Z 2412/2512 33007KT P6SM OVC020
     FM241400 VRB04KT P6SM SKC
     FM250000 15006KT P6SM SCT250=

USA.gov is the U.S. government's official web portal to all federal, state and local government web resources and services.